KF7MJQ-10 Weather Reports


Display with metric or nautical units.
time (UTC)temp
F
wind
direction
speed
MPH
gust
MPH
rain 1hr
in
rain 24hr
in
rain mn
in
humidity
%
barometer
mb
20260901070046 0 0.0 0.0 0.00 0.00 0.00 1008.6
20260901065545 0 0.0 0.0 0.00 0.00 0.00 1008.5
20260901065046 0 0.0 0.0 0.00 0.00 0.00 1008.5
20260901064543 0 0.0 0.0 0.00 0.00 0.00 1008.6
20260901064041 0 0.0 0.0 0.00 0.00 0.00 1008.5
20260901063539 0 0.0 0.0 0.00 0.00 0.00 1008.5
20260901063020 0 0.0 0.0 0.00 0.00 0.00 1008.4
20260901062518 0 0.0 0.0 0.00 0.00 0.00 1008.5
20260901062020 0 0.0 0.0 0.00 0.00 0.00 1008.5
20260901061516 58 20 0.0 0.0 0.00 0.00 0.00 1 1008.6
20260901061015 58 20 0.0 0.0 0.00 0.00 0.00 1 1008.6
20260901060514 59 20 0.0 0.0 0.00 0.00 0.00 1 1008.6
20260901060105 59 20 0.0 0.0 0.00 0.00 0.00 1 1008.6
20260901055600 59 74 0.0 1.0 0.00 0.00 0.00 1 1008.7
20260901055058 59 103 0.0 1.0 0.00 0.00 0.00 1 1008.6
20260901054556 59 86 0.0 1.0 0.00 0.00 0.00 1 1008.6
20260901054054 59 84 0.0 1.0 0.00 0.00 0.00 1 1008.6
20260901053558 59 356 0.0 0.0 0.00 0.00 0.00 1 1008.6
20260901053057 59 269 0.0 0.0 0.00 0.00 0.00 1 1008.5
20260901052550 59 127 0.0 0.0 0.00 0.00 0.00 1 1008.6
20260901052048 59 120 0.0 0.0 0.00 0.00 0.00 1 1008.5
20260901051547 59 241 0.0 0.0 0.00 0.00 0.00 1 1008.5
20260901051046 59 233 0.0 0.0 0.00 0.00 0.00 1 1008.5
20260901050545 59 219 0.0 0.0 0.00 0.00 0.00 1 1008.5
20260901050043 59 219 0.0 0.0 0.00 0.00 0.00 1 1008.4
20260901045544 59 152 0.0 0.0 0.00 0.00 0.00 1 1008.5
20260901045043 59 223 0.0 0.0 0.00 0.00 0.00 1 1008.4
20260901044540 59 291 0.0 0.0 0.00 0.00 0.00 1 1008.4
20260901044040 59 290 0.0 0.0 0.00 0.00 0.00 1 1008.4
20260901043539 59 303 0.0 1.0 0.00 0.00 0.00 1 1008.3
20260901043051 59 290 0.0 1.0 0.00 0.00 0.00 1 1008.3
20260901042537 59 188 0.0 1.0 0.00 0.00 0.00 1 1008.3
20260901042035 59 264 0.0 2.0 0.00 0.00 0.00 1 1008.3
20260901041535 59 173 0.0 2.0 0.00 0.00 0.00 1 1008.3
20260901041035 59 265 0.0 1.0 0.00 0.00 0.00 1 1008.2
20260901040534 59 302 0.0 2.0 0.00 0.00 0.00 1 1008.2
20260901040016 59 348 0.0 4.0 0.00 0.00 0.00 1 1008.2
20260901035514 59 235 0.0 3.0 0.00 0.00 0.00 1 1008.2
20260901035015 59 68 0.0 3.0 0.00 0.00 0.00 1 1008.2
20260901034511 59 255 0.0 1.0 0.00 0.00 0.00 1 1008.1
20260901034012 59 293 0.0 4.0 0.00 0.00 0.00 1 1008.1
20260901033509 59 289 0.0 4.0 0.00 0.00 0.00 1 1008.0
20260901033107 59 238 0.0 3.0 0.00 0.00 0.00 1 1008.0
20260901032550 60 56 0.0 3.0 0.00 0.00 0.00 1 1008.0
20260901032047 60 307 0.0 2.0 0.00 0.00 0.00 1 1008.0
20260901031604 60 305 0.0 4.0 0.00 0.00 0.00 1 1007.9
20260901031044 60 263 0.0 5.0 0.00 0.00 0.00 1 1007.9
20260901030547 60 159 0.0 5.0 0.00 0.00 0.00 1 1008.0
20260901030024 60 323 0.0 3.0 0.00 0.00 0.00 1 1008.0
20260901025526 60 224 0.0 4.0 0.00 0.00 0.00 1 1008.1
20260901025023 60 323 0.0 4.0 0.00 0.00 0.00 1 1008.0
20260901024519 60 295 0.0 1.0 0.00 0.00 0.00 1 1008.1
20260901024019 60 263 0.0 1.0 0.00 0.00 0.00 1 1008.1
20260901023517 60 294 0.0 1.0 0.00 0.00 0.00 1 1008.1
20260901023116 60 236 0.0 1.0 0.00 0.00 0.00 1 1008.1
20260901022556 60 191 0.0 1.0 0.00 0.00 0.00 1 1008.1
20260901022056 60 352 0.0 1.0 0.00 0.00 0.00 1 1008.1
20260901021556 61 319 0.0 1.0 0.00 0.00 0.00 1 1008.2
20260901021052 61 287 0.0 2.0 0.00 0.00 0.00 1 1008.2
20260901020551 61 304 0.0 1.0 0.00 0.00 0.00 1 1008.2
20260901020049 61 246 0.0 3.0 0.00 0.00 0.00 1 1008.2
20260901015529 61 38 0.0 3.0 0.00 0.00 0.00 1 1008.3
20260901015032 61 283 0.0 2.0 0.00 0.00 0.00 1 1008.3
20260901014527 61 333 0.0 3.0 0.00 0.00 0.00 1 1008.3
20260901014025 61 278 0.0 3.0 0.00 0.00 0.00 1 1008.4
20260901013524 61 333 0.0 2.0 0.00 0.00 0.00 1 1008.4
20260901013030 61 310 0.0 2.0 0.00 0.00 0.00 1 1008.5
20260901012503 61 277 0.0 2.0 0.00 0.00 0.00 1 1008.5
20260901012002 61 304 0.0 2.0 0.00 0.00 0.00 1 1008.5
20260901011502 61 65 0.0 2.0 0.00 0.00 0.00 1 1008.6
20260901011100 61 348 0.0 2.0 0.00 0.00 0.00 1 1008.6
20260901010558 62 242 0.0 4.0 0.00 0.00 0.00 1 1008.7
20260901010100 61 58 0.0 6.0 0.00 0.00 0.00 1 1008.6
20260901005539 61 22 1.0 7.0 0.00 0.00 0.00 1 1008.6
20260901005041 61 273 0.0 7.0 0.00 0.00 0.00 1 1008.6
20260901004536 62 82 0.0 4.0 0.00 0.00 0.00 1 1008.6
20260901004035 61 285 0.0 4.0 0.00 0.00 0.00 1 1008.5
20260901003533 62 107 1.0 4.0 0.00 0.00 0.00 1 1008.5
20260901003031 62 295 0.0 6.0 0.00 0.00 0.00 1 1008.5
20260901002513 62 58 0.0 6.0 0.00 0.00 0.00 1 1008.6
20260901002012 62 60 0.0 5.0 0.00 0.00 0.00 1 1008.7
20260901001512 62 321 0.0 4.0 0.00 0.00 0.00 1 1008.8
20260901001008 62 321 0.0 4.0 0.00 0.00 0.00 1 1008.8
20260901000506 62 290 0.0 4.0 0.00 0.00 0.00 1 1009.0
20260901000008 62 309 0.0 4.0 0.00 0.00 0.00 1 1008.9
20260831235546 62 291 0.0 4.0 0.00 0.00 0.00 1 1009.0
20260831235045 62 291 0.0 4.0 0.00 0.00 0.00 1 1008.9
20260831234543 62 330 0.0 6.0 0.00 0.00 0.00 1 1009.0
20260831234041 62 34 1.0 6.0 0.00 0.00 0.00 1 1009.1
20260831233540 62 56 1.0 6.0 0.00 0.00 0.00 1 1009.1
20260831233040 62 77 0.0 5.0 0.00 0.00 0.00 1 1009.0
20260831232520 62 70 0.0 6.0 0.00 0.00 0.00 1 1009.0
20260831232018 62 308 1.0 6.0 0.00 0.00 0.00 1 1009.1
20260831231517 62 293 0.0 3.0 0.00 0.00 0.00 1 1009.1
20260831231018 62 308 0.0 5.0 0.00 0.00 0.00 1 1009.1
20260831230515 62 289 0.0 5.0 0.00 0.00 0.00 1 1009.1
20260831230013 62 330 0.0 2.0 0.00 0.00 0.00 1 1009.3
20260831225554 62 285 0.0 2.0 0.00 0.00 0.00 1 1009.3
20260831225054 62 307 0.0 1.0 0.00 0.00 0.00 1 1009.3
20260831224555 62 356 0.0 2.0 0.00 0.00 0.00 1 1009.2
20260831224050 62 88 0.0 2.0 0.00 0.00 0.00 1 1009.2
20260831223549 62 333 0.0 3.0 0.00 0.00 0.00 1 1009.4
20260831223047 62 60 0.0 3.0 0.00 0.00 0.00 1 1009.5
20260831222528 62 223 0.0 2.0 0.00 0.00 0.00 1 1009.4
20260831222033 63 239 0.0 6.0 0.00 0.00 0.00 1 1009.4
20260831221524 63 288 0.0 6.0 0.00 0.00 0.00 1 1009.4
20260831221022 63 56 0.0 3.0 0.00 0.00 0.00 1 1009.6
20260831220521 63 226 0.0 5.0 0.00 0.00 0.00 1 1009.6
20260831220020 63 299 0.0 5.0 0.00 0.00 0.00 1 1009.8
20260831215503 63 30 0.0 4.0 0.00 0.00 0.00 1 1009.8
20260831215100 63 78 0.0 4.0 0.00 0.00 0.00 1 1009.8
20260831214600 65 297 0.0 4.0 0.00 0.00 0.00 1 1009.9
20260831214056 65 302 1.0 4.0 0.00 0.00 0.00 1 1010.0
20260831213555 66 58 1.0 4.0 0.00 0.00 0.00 1 1010.0
20260831213056 66 283 0.0 4.0 0.00 0.00 0.00 1 1010.1
20260831212535 67 151 0.0 4.0 0.00 0.00 0.00 1 1010.1
20260831212033 67 44 0.0 5.0 0.00 0.00 0.00 1 1010.1
20260831211534 68 281 1.0 5.0 0.00 0.00 0.00 1 1010.2
20260831211030 68 56 0.0 3.0 0.00 0.00 0.00 1 1010.2
20260831210529 69 257 1.0 3.0 0.00 0.00 0.00 1 1010.2
20260831210028 69 226 0.0 5.0 0.00 0.00 0.00 1 1010.3
20260831205509 69 202 1.0 5.0 0.00 0.00 0.00 1 1010.3
20260831205008 69 291 0.0 3.0 0.00 0.00 0.00 1 1010.3
20260831204506 69 285 1.0 3.0 0.00 0.00 0.00 1 1010.3
20260831204005 68 58 0.0 3.0 0.00 0.00 0.00 1 1010.4
20260831203504 68 231 0.0 5.0 0.00 0.00 0.00 1 1010.5
20260831203003 69 334 1.0 5.0 0.00 0.00 0.00 1 1010.6
20260831202600 69 255 0.0 4.0 0.00 0.00 0.00 1 1010.7
20260831202041 69 238 0.0 4.0 0.00 0.00 0.00 1 1010.8
20260831201540 70 346 0.0 3.0 0.00 0.00 0.00 1 1010.7
20260831201039 70 111 0.0 2.0 0.00 0.00 0.00 1 1010.7
20260831200537 70 129 0.0 4.0 0.00 0.00 0.00 1 1010.8
20260831200040 69 238 0.0 4.0 0.00 0.00 0.00 1 1010.9
20260831195535 70 217 0.0 3.0 0.00 0.00 0.00 1 1011.0
20260831195015 70 246 0.0 3.0 0.00 0.00 0.00 1 1011.0
20260831194514 69 44 0.0 5.0 0.00 0.00 0.00 1 1010.9
20260831194013 69 241 0.0 5.0 0.00 0.00 0.00 1 1011.0
20260831193511 69 281 0.0 4.0 0.00 0.00 0.00 1 1011.2
20260831193011 70 290 0.0 3.0 0.00 0.00 0.00 1 1011.2
20260831192511 69 267 0.0 3.0 0.00 0.00 0.00 1 1011.2
20260831192049 69 195 0.0 3.0 0.00 0.00 0.00 1 1011.4
20260831191558 69 70 0.0 4.0 0.00 0.00 0.00 1 1011.4
20260831191046 70 298 0.0 2.0 0.00 0.00 0.00 1 1011.5
20260831190546 70 224 0.0 2.0 0.00 0.00 0.00 1 1011.6
20260831190047 70 311 0.0 3.0 0.00 0.00 0.00 1 1011.6
20260831185541 70 81 0.0 3.0 0.00 0.00 0.00 1 1011.7
20260831185027 69 252 0.0 3.0 0.00 0.00 0.00 1 1011.7
20260831184522 69 303 0.0 2.0 0.00 0.00 0.00 1 1011.8
20260831184028 68 218 0.0 2.0 0.00 0.00 0.00 1 1011.9
20260831183520 68 274 0.0 2.0 0.00 0.00 0.00 1 1011.9
20260831183017 68 232 0.0 2.0 0.00 0.00 0.00 1 1012.0
20260831182519 68 280 0.0 2.0 0.00 0.00 0.00 1 1012.0
20260831182057 68 58 0.0 2.0 0.00 0.00 0.00 1 1012.0
20260831181556 68 284 0.0 2.0 0.00 0.00 0.00 1 1012.0
20260831181057 67 250 0.0 3.0 0.00 0.00 0.00 1 1012.0
20260831180554 67 248 1.0 3.0 0.00 0.00 0.00 1 1012.0
20260831180050 66 231 0.0 3.0 0.00 0.00 0.00 1 1012.1
20260831175552 66 236 0.0 3.0 0.00 0.00 0.00 1 1012.2
20260831175031 65 226 0.0 3.0 0.00 0.00 0.00 1 1012.1
20260831174529 64 238 0.0 2.0 0.00 0.00 0.00 1 1012.1
20260831174032 64 212 0.0 2.0 0.00 0.00 0.00 1 1012.2
20260831173526 63 238 0.0 2.0 0.00 0.00 0.00 1 1012.2
20260831173024 63 252 0.0 3.0 0.00 0.00 0.00 1 1012.2
20260831172523 63 236 0.0 2.0 0.00 0.00 0.00 1 1012.3
20260831172009 62 229 0.0 2.0 0.00 0.00 0.00 1 1012.3
20260831171508 62 236 0.0 1.0 0.00 0.00 0.00 1 1012.3
20260831171002 62 229 0.0 2.0 0.00 0.00 0.00 1 1012.3
20260831170601 62 94 0.0 2.0 0.00 0.00 0.00 1 1012.3
20260831170059 62 340 0.0 2.0 0.00 0.00 0.00 1 1012.4
20260831165557 61 217 0.0 1.0 0.00 0.00 0.00 1 1012.4
20260831165038 61 67 0.0 1.0 0.00 0.00 0.00 1 1012.4
20260831164546 61 233 0.0 1.0 0.00 0.00 0.00 1 1012.5
20260831164036 61 236 0.0 1.0 0.00 0.00 0.00 1 1012.6
20260831163535 61 229 0.0 1.0 0.00 0.00 0.00 1 1012.6
20260831163038 60 145 0.0 1.0 0.00 0.00 0.00 1 1012.6
20260831162536 59 32 0.0 1.0 0.00 0.00 0.00 1 1012.7
20260831162012 58 22 0.0 0.0 0.00 0.00 0.00 1 1012.7
20260831161512 58 20 0.0 0.0 0.00 0.00 0.00 1 1012.8
20260831161010 57 27 0.0 0.0 0.00 0.00 0.00 1 1012.8
20260831160509 57 21 0.0 1.0 0.00 0.00 0.00 1 1012.9
20260831160009 57 37 0.0 1.0 0.00 0.00 0.00 1 1012.9
20260831155509 57 43 0.0 1.0 0.00 0.00 0.00 1 1012.9
20260831155052 57 44 0.0 1.0 0.00 0.00 0.00 1 1012.9
20260831154547 56 15 0.0 1.0 0.00 0.00 0.00 1 1012.9
20260831154046 56 56 0.0 1.0 0.00 0.00 0.00 1 1013.0
20260831153544 56 218 0.0 0.0 0.00 0.00 0.00 1 1012.9
20260831153046 55 218 0.0 0.0 0.00 0.00 0.00 1 1012.8
20260831152541 55 221 0.0 0.0 0.00 0.00 0.00 1 1012.9
20260831152026 55 221 0.0 0.0 0.00 0.00 0.00 1 1013.0
20260831151521 55 221 0.0 0.0 0.00 0.00 0.00 1 1013.0
20260831151020 54 221 0.0 0.0 0.00 0.00 0.00 1 1013.0
20260831150522 54 220 0.0 0.0 0.00 0.00 0.00 1 1013.0
20260831150020 53 221 0.0 0.0 0.00 0.00 0.00 1 1013.0
20260831145518 53 221 0.0 0.0 0.00 0.00 0.00 1 1013.0
20260831145119 53 221 0.0 0.0 0.00 0.00 0.00 1 1013.0
20260831144558 53 221 0.0 0.0 0.00 0.00 0.00 1 1013.0
20260831144057 53 221 0.0 0.0 0.00 0.00 0.00 1 1013.0
20260831143555 53 221 0.0 0.0 0.00 0.00 0.00 1 1013.0
20260831143058 0 0.0 0.0 0.00 0.00 0.00 1013.1
20260831142552 0 0.0 0.0 0.00 0.00 0.00 1013.1
20260831142050 0 0.0 0.0 0.00 0.00 0.00 1013.2
20260831141533 0 0.0 0.0 0.00 0.00 0.00 1013.1
20260831141031 0 0.0 0.0 0.00 0.00 0.00 1013.2
20260831140529 0 0.0 0.0 0.00 0.00 0.00 1013.2
20260831140028 0 0.0 0.0 0.00 0.00 0.00 1013.2
20260831135527 0 0.0 0.0 0.00 0.00 0.00 1013.2
20260831135025 0 0.0 0.0 0.00 0.00 0.00 1013.1
20260831134506 0 0.0 0.0 0.00 0.00 0.00 1013.1
20260831134005 0 0.0 0.0 0.00 0.00 0.00 1013.2
20260831133503 0 0.0 0.0 0.00 0.00 0.00 1013.1
20260831133004 0 0.0 0.0 0.00 0.00 0.00 1013.2
20260831132601 0 0.0 0.0 0.00 0.00 0.00 1013.1
20260831132059 0 0.0 0.0 0.00 0.00 0.00 1013.1
20260831131540 0 0.0 0.0 0.00 0.00 0.00 1013.1
20260831131039 0 0.0 0.0 0.00 0.00 0.00 1013.2
20260831130539 0 0.0 0.0 0.00 0.00 0.00 1013.2
20260831130035 0 0.0 0.0 0.00 0.00 0.00 1013.3
20260831125538 0 0.0 0.0 0.00 0.00 0.00 1013.3
20260831125033 0 0.0 0.0 0.00 0.00 0.00 1013.4
20260831124534 0 0.0 0.0 0.00 0.00 0.00 1013.4
20260831124015 0 0.0 0.0 0.00 0.00 0.00 1013.4
20260831123510 0 0.0 0.0 0.00 0.00 0.00 1013.5
20260831123009 0 0.0 0.0 0.00 0.00 0.00 1013.5
20260831122510 0 0.0 0.0 0.00 0.00 0.00 1013.6
20260831122007 0 0.0 0.0 0.00 0.00 0.00 1013.6
20260831121548 0 0.0 0.0 0.00 0.00 0.00 1013.7
20260831121047 0 0.0 0.0 0.00 0.00 0.00 1013.7
20260831120546 0 0.0 0.0 0.00 0.00 0.00 1013.7
20260831120048 0 0.0 0.0 0.00 0.00 0.00 1013.8
20260831115543 0 0.0 0.0 0.00 0.00 0.00 1013.8
20260831115040 0 0.0 0.0 0.00 0.00 0.00 1013.8
20260831114535 0 0.0 0.0 0.00 0.00 0.00 1013.8
20260831114021 0 0.0 0.0 0.00 0.00 0.00 1013.9
20260831113519 0 0.0 0.0 0.00 0.00 0.00 1013.9
20260831113018 0 0.0 0.0 0.00 0.00 0.00 1014.0
20260831112517 0 0.0 0.0 0.00 0.00 0.00 1014.0
20260831112015 0 0.0 0.0 0.00 0.00 0.00 1014.0
20260831111611 0 0.0 0.0 0.00 0.00 0.00 1014.0
20260831111054 0 0.0 0.0 0.00 0.00 0.00 1014.0
20260831110556 0 0.0 0.0 0.00 0.00 0.00 1014.0
20260831110051 0 0.0 0.0 0.00 0.00 0.00 1014.1
20260831105551 0 0.0 0.0 0.00 0.00 0.00 1014.1
20260831105051 0 0.0 0.0 0.00 0.00 0.00 1014.1
20260831104543 0 0.0 0.0 0.00 0.00 0.00 1014.2
20260831104034 0 0.0 0.0 0.00 0.00 0.00 1014.3
20260831103531 0 0.0 0.0 0.00 0.00 0.00 1014.3
20260831103028 0 0.0 0.0 0.00 0.00 0.00 1014.2
20260831102527 0 0.0 0.0 0.00 0.00 0.00 1014.2
20260831102023 0 0.0 0.0 0.00 0.00 0.00 1014.3
20260831101504 0 0.0 0.0 0.00 0.00 0.00 1014.2
20260831101003 0 0.0 0.0 0.00 0.00 0.00 1014.2
20260831100501 0 0.0 0.0 0.00 0.00 0.00 1014.2
20260831100100 0 0.0 0.0 0.00 0.00 0.00 1014.3
20260831095558 0 0.0 0.0 0.00 0.00 0.00 1014.2
20260831095101 0 0.0 0.0 0.00 0.00 0.00 1014.3
20260831094540 0 0.0 0.0 0.00 0.00 0.00 1014.4
20260831094038 0 0.0 0.0 0.00 0.00 0.00 1014.5
20260831093535 0 0.0 0.0 0.00 0.00 0.00 1014.6
20260831093040 0 0.0 0.0 0.00 0.00 0.00 1014.6
20260831092532 0 0.0 0.0 0.00 0.00 0.00 1014.6
20260831092031 0 0.0 0.0 0.00 0.00 0.00 1014.7
20260831091512 0 0.0 0.0 0.00 0.00 0.00 1014.7
20260831091014 0 0.0 0.0 0.00 0.00 0.00 1014.8
20260831090509 0 0.0 0.0 0.00 0.00 0.00 1014.9
20260831090008 0 0.0 0.0 0.00 0.00 0.00 1014.9
20260831085505 0 0.0 0.0 0.00 0.00 0.00 1014.9
20260831085005 0 0.0 0.0 0.00 0.00 0.00 1014.9
20260831084603 0 0.0 0.0 0.00 0.00 0.00 1014.9
20260831084044 0 0.0 0.0 0.00 0.00 0.00 1015.0
20260831083543 0 0.0 0.0 0.00 0.00 0.00 1015.0
20260831083047 0 0.0 0.0 0.00 0.00 0.00 1015.0
20260831082540 0 0.0 0.0 0.00 0.00 0.00 1015.1
20260831082039 0 0.0 0.0 0.00 0.00 0.00 1015.1
20260831081538 0 0.0 0.0 0.00 0.00 0.00 1015.2
20260831081022 0 0.0 0.0 0.00 0.00 0.00 1015.3
20260831080518 0 0.0 0.0 0.00 0.00 0.00 1015.3
20260831080024 0 0.0 0.0 0.00 0.00 0.00 1015.4
20260831075514 0 0.0 0.0 0.00 0.00 0.00 1015.4
20260831075014 0 0.0 0.0 0.00 0.00 0.00 1015.5
20260831074514 0 0.0 0.0 0.00 0.00 0.00 1015.5
20260831074054 0 0.0 0.0 0.00 0.00 0.00 1015.6
20260831073553 0 0.0 0.0 0.00 0.00 0.00 1015.6
20260831073057 0 0.0 0.0 0.00 0.00 0.00 1015.6
20260831072549 0 0.0 0.0 0.00 0.00 0.00 1015.7
20260831072047 0 0.0 0.0 0.00 0.00 0.00 1015.7
20260831071546 0 0.0 0.0 0.00 0.00 0.00 1015.7
20260831071028 0 0.0 0.0 0.00 0.00 0.00 1015.8
20260831070526 0 0.0 0.0 0.00 0.00 0.00 1015.9